TimeMST,TemperatureF,Dew PointF,Humidity,Sea Level PressureIn,VisibilityMPH,Wind Direction,Wind SpeedMPH,Gust SpeedMPH,PrecipitationIn,Events,Conditions,WindDirDegrees,DateUTC
12:53 AM,21.0,16.0,81,30.35,10.0,Calm,Calm,-,N/A,,Clear,0,2012-11-27 07:53:00
1:53 AM,19.9,16.0,85,30.34,10.0,Calm,Calm,-,N/A,,Clear,0,2012-11-27 08:53:00
2:53 AM,19.9,17.1,89,30.34,10.0,Calm,Calm,-,N/A,,Clear,0,2012-11-27 09:53:00
3:53 AM,19.0,15.1,85,30.35,10.0,Calm,Calm,-,N/A,,Scattered Clouds,0,2012-11-27 10:53:00
4:53 AM,19.9,18.0,92,30.36,10.0,Calm,Calm,-,N/A,,Overcast,0,2012-11-27 11:53:00
5:53 AM,21.0,17.1,85,30.37,10.0,Calm,Calm,-,N/A,,Overcast,0,2012-11-27 12:53:00
6:53 AM,19.0,16.0,88,30.39,10.0,WNW,3.5,-,N/A,,Scattered Clouds,300,2012-11-27 13:53:00
7:53 AM,19.0,16.0,88,30.40,10.0,Calm,Calm,-,N/A,,Overcast,0,2012-11-27 14:53:00
8:53 AM,19.9,17.1,89,30.41,10.0,Calm,Calm,-,N/A,,Clear,0,2012-11-27 15:53:00
9:53 AM,23.0,19.0,85,30.41,10.0,Calm,Calm,-,N/A,,Clear,0,2012-11-27 16:53:00
10:53 AM,25.0,19.0,78,30.41,10.0,Calm,Calm,-,N/A,,Clear,0,2012-11-27 17:53:00
11:53 AM,26.1,19.9,78,30.39,10.0,Calm,Calm,-,N/A,,Clear,0,2012-11-27 18:53:00
12:53 PM,28.0,19.0,69,30.36,10.0,Calm,Calm,-,N/A,,Clear,0,2012-11-27 19:53:00
1:53 PM,33.1,18.0,54,30.33,10.0,Calm,Calm,-,N/A,,Clear,0,2012-11-27 20:53:00
2:53 PM,32.0,19.0,59,30.31,10.0,Calm,Calm,-,N/A,,Clear,0,2012-11-27 21:53:00
3:53 PM,32.0,19.9,61,30.31,10.0,Calm,Calm,-,N/A,,Clear,0,2012-11-27 22:53:00
4:53 PM,30.9,19.0,61,30.30,10.0,Calm,Calm,-,N/A,,Clear,0,2012-11-27 23:53:00
5:53 PM,28.0,21.0,75,30.30,10.0,Calm,Calm,-,N/A,,Clear,0,2012-11-28 00:53:00
6:53 PM,28.0,21.0,75,30.30,10.0,Calm,Calm,-,N/A,,Clear,0,2012-11-28 01:53:00
7:53 PM,26.1,21.0,81,30.30,10.0,Calm,Calm,-,N/A,,Clear,0,2012-11-28 02:53:00
8:53 PM,27.0,19.9,75,30.29,10.0,Calm,Calm,-,N/A,,Clear,0,2012-11-28 03:53:00
9:53 PM,27.0,19.9,75,30.28,10.0,East,3.5,-,N/A,,Clear,100,2012-11-28 04:53:00
10:53 PM,24.1,19.9,84,30.29,10.0,Calm,Calm,-,N/A,,Clear,0,2012-11-28 05:53:00
11:53 PM,23.0,19.9,88,30.29,10.0,Calm,Calm,-,N/A,,Clear,0,2012-11-28 06:53:00